Location: Cosy Dell
(34.2789°N, 117.4537°W)
Time: 21:06:01
(UTC+00:00)

Resurs 01 Rocket - Pass Details

Date: 14 July 2020
Orbit: 635 x 644 km, 98.0° (Epoch: 13 August)

Event Time Altitude Azimuth Distance (km) Brightness Sun altitude
Exits shadow 04:46:25 22° 186° (S) 1,384 3.0 -18.3°
Maximum altitude 04:49:06 59° 259° (W) 738 2.0 -18.7°
Drops below altitude 10° 04:53:28 10° 339° (NNW) 2,025 5.2 -19.3°
Sets 04:55:42 0° 344° (NNW) 2,937 6.1 -19.6°
